UAL1550 KLAX-KSBP

Flight info

Callsign UAL1550
Flight time 0h 29m
Altitude 18000
Route SUMMR2 RIZIN MQO
Aircraft A320/M-SDE3FGHIRWY/LB1

Departure

Time 2026-04-15 05:16
Airport Los Angeles International Airport (KLAX)

Arrival

Time 2026-04-15 05:45
Airport San Luis County Regional Airport (KSBP)
Time Latitude Longitude Altitude Speed Heading
2026-04-15 04:56 33.94035 -118.40255 129 ft 0 kts 79°
2026-04-15 05:07 33.94035 -118.40256 129 ft 1 kts 79°
2026-04-15 05:07 33.94034 -118.40273 129 ft 2 kts 101°
2026-04-15 05:07 33.94038 -118.40290 129 ft 2 kts 117°
2026-04-15 05:07 33.94047 -118.40305 130 ft 2 kts 136°
2026-04-15 05:08 33.94059 -118.40316 130 ft 2 kts 154°
2026-04-15 05:08 33.94073 -118.40321 130 ft 2 kts 172°
2026-04-15 05:08 33.94079 -118.40322 130 ft 0 kts 177°
2026-04-15 05:10 33.94057 -118.40319 130 ft 7 kts 174°
2026-04-15 05:10 33.93984 -118.40309 129 ft 9 kts 173°
2026-04-15 05:11 33.93948 -118.40303 129 ft 7 kts 172°
2026-04-15 05:11 33.93877 -118.40289 127 ft 10 kts 171°
2026-04-15 05:11 33.93854 -118.40229 126 ft 10 kts 83°
2026-04-15 05:11 33.93866 -118.40119 124 ft 15 kts 83°
2026-04-15 05:12 33.93880 -118.39983 122 ft 17 kts 83°
2026-04-15 05:12 33.93895 -118.39835 120 ft 18 kts 83°
2026-04-15 05:12 33.93912 -118.39676 118 ft 20 kts 83°
2026-04-15 05:12 33.93931 -118.39497 115 ft 22 kts 83°
2026-04-15 05:13 33.93949 -118.39306 112 ft 23 kts 83°
2026-04-15 05:13 33.93969 -118.39110 110 ft 23 kts 83°
2026-04-15 05:13 33.93990 -118.38913 109 ft 24 kts 83°
2026-04-15 05:13 33.94007 -118.38742 108 ft 19 kts 83°
2026-04-15 05:14 33.94022 -118.38594 107 ft 17 kts 83°
2026-04-15 05:14 33.94037 -118.38445 106 ft 17 kts 83°
2026-04-15 05:14 33.94052 -118.38301 105 ft 17 kts 83°
2026-04-15 05:14 33.94066 -118.38164 104 ft 15 kts 83°
2026-04-15 05:15 33.94078 -118.38047 104 ft 10 kts 84°
2026-04-15 05:15 33.94030 -118.37995 103 ft 11 kts 171°
2026-04-15 05:15 33.93982 -118.38042 103 ft 12 kts 260°
2026-04-15 05:15 33.93944 -118.38403 106 ft 76 kts 263°
2026-04-15 05:16 33.93854 -118.39294 112 ft 134 kts 263°
2026-04-15 05:16 33.93722 -118.40575 287 ft 165 kts 263°
2026-04-15 05:16 33.93567 -118.41917 900 ft 164 kts 263°
2026-04-15 05:16 33.93425 -118.43276 1555 ft 165 kts 264°
2026-04-15 05:17 33.93290 -118.44646 2090 ft 168 kts 265°
2026-04-15 05:17 33.93153 -118.46098 2415 ft 183 kts 265°
2026-04-15 05:17 33.93021 -118.47679 2739 ft 199 kts 266°
2026-04-15 05:17 33.92881 -118.49407 3051 ft 218 kts 266°
2026-04-15 05:18 33.92727 -118.51319 3367 ft 240 kts 266°
2026-04-15 05:18 33.92559 -118.53403 3806 ft 258 kts 266°
2026-04-15 05:18 33.92377 -118.55609 4444 ft 266 kts 265°
2026-04-15 05:18 33.92194 -118.57806 5209 ft 270 kts 266°
2026-04-15 05:19 33.92007 -118.60046 6058 ft 272 kts 266°
2026-04-15 05:19 33.91827 -118.62315 6873 ft 275 kts 268°
2026-04-15 05:19 33.91764 -118.64625 7674 ft 278 kts 271°
2026-04-15 05:19 33.91753 -118.66951 8464 ft 282 kts 271°
2026-04-15 05:20 33.91748 -118.69318 9235 ft 285 kts 271°
2026-04-15 05:20 33.91742 -118.71708 9977 ft 289 kts 272°
2026-04-15 05:20 33.91736 -118.74113 10585 ft 296 kts 272°
2026-04-15 05:20 33.91728 -118.76685 10939 ft 314 kts 272°
2026-04-15 05:21 33.91719 -118.79369 11259 ft 331 kts 271°
2026-04-15 05:21 33.91707 -118.82197 11558 ft 347 kts 271°
2026-04-15 05:21 33.91755 -118.85162 11890 ft 360 kts 274°
2026-04-15 05:21 33.91843 -118.88184 12345 ft 368 kts 274°
2026-04-15 05:22 33.91935 -118.91270 12996 ft 370 kts 274°
2026-04-15 05:22 33.92027 -118.94376 13638 ft 372 kts 274°
2026-04-15 05:22 33.92121 -118.97505 14229 ft 375 kts 275°
2026-04-15 05:22 33.92467 -119.00598 14791 ft 376 kts 285°
2026-04-15 05:23 33.93314 -119.03553 15366 ft 376 kts 296°
2026-04-15 05:23 33.94602 -119.06331 15955 ft 377 kts 303°
2026-04-15 05:23 33.95977 -119.08968 16506 ft 379 kts 303°
2026-04-15 05:23 33.97406 -119.11686 17038 ft 382 kts 303°
2026-04-15 05:24 33.98823 -119.14402 17567 ft 384 kts 303°
2026-04-15 05:24 34.00336 -119.17015 17921 ft 385 kts 310°
2026-04-15 05:24 34.02150 -119.19377 17998 ft 384 kts 317°
2026-04-15 05:24 34.04216 -119.21416 18003 ft 383 kts 324°
2026-04-15 05:25 34.06411 -119.23322 18006 ft 388 kts 325°
2026-04-15 05:25 34.08666 -119.25242 18007 ft 403 kts 325°
2026-04-15 05:25 34.10969 -119.27205 18005 ft 417 kts 325°
2026-04-15 05:25 34.13369 -119.29258 17998 ft 426 kts 325°
2026-04-15 05:26 34.15805 -119.31349 18004 ft 428 kts 325°
2026-04-15 05:26 34.18238 -119.33442 18004 ft 428 kts 324°
2026-04-15 05:26 34.20667 -119.35535 18004 ft 428 kts 324°
2026-04-15 05:26 34.23086 -119.37621 18004 ft 428 kts 324°
2026-04-15 05:27 34.25516 -119.39721 18004 ft 428 kts 324°
2026-04-15 05:27 34.27970 -119.41842 18000 ft 428 kts 324°
2026-04-15 05:27 34.30392 -119.43938 17994 ft 428 kts 325°
2026-04-15 05:27 34.32815 -119.46036 17979 ft 428 kts 325°
2026-04-15 05:28 34.35228 -119.48128 17994 ft 429 kts 325°
2026-04-15 05:28 34.37660 -119.50236 17974 ft 429 kts 325°
2026-04-15 05:28 34.40089 -119.52342 17971 ft 428 kts 324°
2026-04-15 05:28 34.42472 -119.54519 17975 ft 428 kts 323°
2026-04-15 05:29 34.44822 -119.56751 18003 ft 429 kts 322°
2026-04-15 05:29 34.47165 -119.58993 17988 ft 428 kts 322°
2026-04-15 05:29 34.49497 -119.61228 17983 ft 424 kts 322°
2026-04-15 05:29 34.51771 -119.63411 17755 ft 412 kts 322°
2026-04-15 05:30 34.53972 -119.65523 17505 ft 398 kts 322°
2026-04-15 05:30 34.56118 -119.67584 17248 ft 386 kts 322°
2026-04-15 05:30 34.58217 -119.69600 16990 ft 380 kts 322°
2026-04-15 05:30 34.60275 -119.71577 16752 ft 378 kts 322°
2026-04-15 05:31 34.62334 -119.73559 16492 ft 376 kts 322°
2026-04-15 05:31 34.64378 -119.75524 16156 ft 375 kts 322°
2026-04-15 05:31 34.66419 -119.77489 15806 ft 374 kts 321°
2026-04-15 05:31 34.68478 -119.79472 15381 ft 372 kts 321°
2026-04-15 05:32 34.70509 -119.81430 14897 ft 370 kts 321°
2026-04-15 05:32 34.72529 -119.83379 14350 ft 368 kts 321°
2026-04-15 05:32 34.74524 -119.85306 13850 ft 366 kts 321°
2026-04-15 05:32 34.76515 -119.87229 13309 ft 365 kts 321°
2026-04-15 05:33 34.78475 -119.89125 12788 ft 363 kts 321°
2026-04-15 05:33 34.80461 -119.91048 12261 ft 362 kts 321°
2026-04-15 05:33 34.82426 -119.92950 11736 ft 360 kts 322°
2026-04-15 05:33 34.84358 -119.94821 11262 ft 347 kts 322°
2026-04-15 05:34 34.86222 -119.96629 10721 ft 333 kts 322°
2026-04-15 05:34 34.87983 -119.98337 10528 ft 320 kts 322°
2026-04-15 05:34 34.89682 -119.99985 10436 ft 300 kts 322°
2026-04-15 05:34 34.91273 -120.01530 10341 ft 286 kts 322°
2026-04-15 05:35 34.92794 -120.03006 10231 ft 275 kts 322°
2026-04-15 05:35 34.94289 -120.04459 10062 ft 269 kts 322°
2026-04-15 05:35 34.95764 -120.05894 9555 ft 275 kts 322°
2026-04-15 05:35 34.97265 -120.07352 9144 ft 277 kts 322°
2026-04-15 05:36 34.98759 -120.08807 8810 ft 276 kts 322°
2026-04-15 05:36 35.00262 -120.10269 8478 ft 275 kts 322°
2026-04-15 05:36 35.01752 -120.11722 8140 ft 274 kts 322°
2026-04-15 05:36 35.03250 -120.13181 7784 ft 274 kts 323°
2026-04-15 05:37 35.04737 -120.14632 7566 ft 273 kts 323°
2026-04-15 05:37 35.06213 -120.16068 7364 ft 273 kts 323°
2026-04-15 05:37 35.07718 -120.17537 7077 ft 272 kts 323°
2026-04-15 05:37 35.09198 -120.18984 6753 ft 272 kts 323°
2026-04-15 05:38 35.10663 -120.20435 6495 ft 269 kts 319°
2026-04-15 05:38 35.11720 -120.22322 6201 ft 271 kts 289°
2026-04-15 05:38 35.11916 -120.24577 5950 ft 268 kts 272°
2026-04-15 05:38 35.11905 -120.26845 5578 ft 264 kts 271°
2026-04-15 05:39 35.11904 -120.29058 5336 ft 260 kts 272°
2026-04-15 05:39 35.11916 -120.31228 4979 ft 255 kts 272°
2026-04-15 05:39 35.11938 -120.33382 4534 ft 253 kts 273°
2026-04-15 05:39 35.11962 -120.35509 4248 ft 247 kts 273°
2026-04-15 05:40 35.11987 -120.37572 4023 ft 235 kts 273°
2026-04-15 05:40 35.12011 -120.39521 3960 ft 223 kts 273°
2026-04-15 05:40 35.12033 -120.41381 3935 ft 213 kts 273°
2026-04-15 05:40 35.12091 -120.43134 3894 ft 201 kts 284°
2026-04-15 05:41 35.12574 -120.44681 3855 ft 191 kts 304°
2026-04-15 05:41 35.13325 -120.46020 3655 ft 189 kts 309°
2026-04-15 05:41 35.14097 -120.47311 3404 ft 188 kts 309°
2026-04-15 05:41 35.14868 -120.48608 3183 ft 188 kts 309°
2026-04-15 05:42 35.15630 -120.49909 2993 ft 188 kts 308°
2026-04-15 05:42 35.16385 -120.51214 2816 ft 186 kts 308°
2026-04-15 05:42 35.17128 -120.52508 2637 ft 185 kts 308°
2026-04-15 05:42 35.17840 -120.53754 2406 ft 174 kts 308°
2026-04-15 05:43 35.18512 -120.54935 2119 ft 164 kts 308°
2026-04-15 05:43 35.19151 -120.56055 1839 ft 154 kts 308°
2026-04-15 05:43 35.19739 -120.57088 1597 ft 142 kts 308°
2026-04-15 05:43 35.20282 -120.58041 1378 ft 132 kts 308°
2026-04-15 05:44 35.20804 -120.58952 1199 ft 130 kts 308°
2026-04-15 05:44 35.21324 -120.59860 1010 ft 129 kts 308°
2026-04-15 05:44 35.21821 -120.60774 816 ft 129 kts 308°
2026-04-15 05:44 35.22346 -120.61657 612 ft 128 kts 307°
2026-04-15 05:45 35.22850 -120.62566 426 ft 128 kts 307°
2026-04-15 05:45 35.23360 -120.63452 236 ft 126 kts 306°
2026-04-15 05:45 35.23824 -120.64265 188 ft 99 kts 307°
2026-04-15 05:45 35.24094 -120.64732 167 ft 39 kts 307°
2026-04-15 05:46 35.24195 -120.64902 160 ft 16 kts 306°
2026-04-15 05:46 35.24268 -120.64896 159 ft 12 kts 71°
2026-04-15 05:46 35.24241 -120.64805 162 ft 11 kts 125°
2026-04-15 05:46 35.24200 -120.64733 166 ft 9 kts 125°
2026-04-15 05:47 35.24161 -120.64664 169 ft 12 kts 125°
2026-04-15 05:47 35.24114 -120.64580 172 ft 11 kts 124°
2026-04-15 05:47 35.24065 -120.64497 176 ft 16 kts 126°
2026-04-15 05:47 35.24000 -120.64382 180 ft 15 kts 124°
2026-04-15 05:48 35.23946 -120.64284 185 ft 12 kts 124°
2026-04-15 05:48 35.23893 -120.64212 189 ft 10 kts 125°
2026-04-15 05:48 35.23855 -120.64145 192 ft 9 kts 125°
2026-04-15 05:48 35.23808 -120.64064 194 ft 11 kts 125°
2026-04-15 05:49 35.23779 -120.64004 195 ft 7 kts 117°
2026-04-15 05:49 35.23757 -120.63950 197 ft 3 kts 105°
2026-04-15 05:49 35.23756 -120.63933 198 ft 4 kts 113°
2026-04-15 05:49 35.23747 -120.63889 200 ft 6 kts 72°
2026-04-15 05:50 35.23771 -120.63858 201 ft 3 kts 49°
2026-04-15 05:50 35.23774 -120.63854 201 ft 0 kts 49°
2026-04-15 05:50 35.23782 -120.63844 202 ft 0 kts 48°